Simultaneous Nadir Overpasses (SNOs) Predictions

Prediction of SNOs between METOP-B and NOAA-19 Satellite Orbit:

Table of predicted SNOs for the next 14.0 days since TLE Epoch: 5/14/2016
Index Date (METOP-B) Time (METOP-B) Lat,Lon (METOP-B) SZA (METOP-B ) Date (NOAA-19) Time (NOAA-19) Lat,Lon (NOAA-19) SZA (NOAA-19 ) Distance(km) Time Diff (sec)
1 05/14/2016 12:25:28 76.00, -6.17 57.12 05/14/2016 12:24:25 76.00, -6.13 57.12 1.02 63
2 05/14/2016 13:16:10 -75.99, 161.13 122.90 05/14/2016 13:15:30 -76.01, 161.05 122.88 2.97 40
3 05/14/2016 14:06:50 75.98, -31.57 57.08 05/14/2016 14:06:27 75.99, -31.63 57.10 1.98 23
4 05/14/2016 14:57:32 -75.97, 135.73 122.94 05/14/2016 14:57:31 -75.96, 135.72 122.95 1.27 1
5 05/14/2016 15:48:12 75.96, -56.97 57.05 05/14/2016 15:48:28 75.94, -56.96 57.03 2.20 16
6 05/14/2016 16:38:54 -75.95, 110.33 122.97 05/14/2016 16:39:33 -75.96, 110.23 122.97 2.77 39
7 05/14/2016 17:29:34 75.94, -82.37 57.01 05/14/2016 17:30:30 75.94, -82.45 57.01 2.26 56
8 05/14/2016 18:20:19 -75.80, 84.47 123.15 05/14/2016 18:21:32 -75.82, 85.21 123.12 20.19 73
9 05/25/2016 03:30:46 76.04, 127.67 54.95 05/25/2016 03:29:35 76.05, 127.62 54.96 1.87 71
10 05/25/2016 04:21:28 -76.03, -65.03 125.07 05/25/2016 04:20:37 -76.01, -65.02 125.08 1.60 51
11 05/25/2016 05:12:08 76.02, 102.27 54.92 05/25/2016 05:11:36 76.00, 102.29 54.90 2.16 32
12 05/25/2016 06:02:50 -76.01, -90.43 125.10 05/25/2016 06:02:39 -76.01, -90.51 125.10 2.14 11
13 05/25/2016 06:53:30 76.00, 76.87 54.89 05/25/2016 06:53:38 76.00, 76.80 54.88 2.10 8
14 05/25/2016 07:44:12 -75.99,-115.83 125.13 05/25/2016 07:44:40 -75.96,-115.85 125.16 3.26 28
15 05/25/2016 08:34:52 75.98, 51.47 54.86 05/25/2016 08:35:39 75.95, 51.46 54.82 3.96 47
16 05/25/2016 09:25:34 -75.97,-141.23 125.16 05/25/2016 09:26:42 -75.96,-141.34 125.18 3.39 68
17 05/25/2016 10:16:25 75.45, 24.42 54.31 05/25/2016 10:17:30 75.45, 27.66 54.32 90.67 65




NCC Satellite Simultaneous Nadir Overpasses (SNOs) Prediction Service
